TimeMST,TemperatureF,Dew PointF,Humidity,Sea Level PressureIn,VisibilityMPH,Wind Direction,Wind SpeedMPH,Gust SpeedMPH,PrecipitationIn,Events,Conditions,WindDirDegrees,DateUTC
12:56 AM,46.9,16.9,30,29.85,12.0,SW,15.0,24.2,N/A,,Clear,230,2014-01-12 07:56:00
1:56 AM,46.2,16.5,31,29.83,12.0,SW,20.7,26.5,N/A,,Clear,220,2014-01-12 08:56:00
2:56 AM,48.0,16.5,29,29.82,12.0,WSW,17.3,23.0,N/A,,Clear,240,2014-01-12 09:56:00
3:56 AM,46.2,16.5,31,29.79,12.0,SW,17.3,23.0,N/A,,Clear,220,2014-01-12 10:56:00
4:56 AM,48.9,16.5,28,29.78,12.0,SW,13.8,-,N/A,,Clear,220,2014-01-12 11:56:00
5:56 AM,42.8,15.6,33,29.80,12.0,SW,13.8,-,N/A,,Clear,220,2014-01-12 12:56:00
6:56 AM,41.0,15.8,36,29.80,12.0,SSW,11.5,18.4,N/A,,Clear,210,2014-01-12 13:56:00
7:56 AM,42.3,15.4,34,29.80,12.0,SSW,15.0,24.2,N/A,,Clear,210,2014-01-12 14:56:00
8:56 AM,48.0,17.1,29,29.79,12.0,SSW,15.0,23.0,N/A,,Clear,210,2014-01-12 15:56:00
9:56 AM,54.7,17.2,23,29.76,12.0,SSW,20.7,32.2,N/A,,Clear,210,2014-01-12 16:56:00
10:56 AM,61.0,15.3,17,29.73,12.0,SW,25.3,39.1,N/A,,Clear,230,2014-01-12 17:56:00
11:56 AM,62.2,14.0,15,29.70,5.0,WSW,35.7,47.2,N/A,,Clear,250,2014-01-12 18:56:00
12:08 PM,62.6,14.0,15,29.78,6.0,WSW,36.8,46.0,N/A,,Squalls,250,2014-01-12 19:08:00
12:56 PM,61.5,16.0,17,29.70,12.0,WSW,28.8,42.6,N/A,,Clear,250,2014-01-12 19:56:00
1:56 PM,62.1,15.3,16,29.68,12.0,WSW,19.6,31.1,N/A,,Clear,240,2014-01-12 20:56:00
2:56 PM,63.9,12.0,13,29.68,12.0,West,26.5,34.5,N/A,,Clear,260,2014-01-12 21:56:00
3:56 PM,63.3,9.1,12,29.70,12.0,West,24.2,33.4,N/A,,Clear,270,2014-01-12 22:56:00
4:56 PM,58.8,9.9,14,29.71,12.0,West,16.1,-,N/A,,Clear,270,2014-01-12 23:56:00
5:56 PM,52.9,11.3,19,29.78,12.0,WNW,15.0,-,N/A,,Clear,300,2014-01-13 00:56:00
6:56 PM,50.5,12.4,22,29.85,12.0,West,16.1,-,N/A,,Clear,280,2014-01-13 01:56:00
7:56 PM,49.1,13.3,24,29.89,12.0,West,26.5,34.5,N/A,,Clear,280,2014-01-13 02:56:00
8:56 PM,45.9,2.8,17,29.92,12.0,West,27.6,36.8,N/A,,Clear,280,2014-01-13 03:56:00
9:56 PM,42.3,1.2,18,29.96,12.0,West,27.6,33.4,N/A,,Clear,280,2014-01-13 04:56:00
10:56 PM,41.0,-0.6,18,29.95,12.0,WNW,27.6,33.4,N/A,,Clear,290,2014-01-13 05:56:00
11:56 PM,37.4,0.9,21,30.00,12.0,NW,11.5,-,N/A,,Clear,320,2014-01-13 06:56:00